Погода в Архангельске

Россия / Архангельская область     64°32′21″N   40°31′00″E
темп.,
°C
ветер,
м/с
пор.,
м/с
влажн.,
%
обл.,
%
осадки,
мм/ч
давл.,
гПа
погр.,
м
7 мая, пт
пт700:00+4в71552100 0.1 999886
03:00+3в81784100 2.2 995778
06:00+5юв41093100 1.8 995581
09:00+7ююз51170100 1.9 9971340
12:00+9ю5117178 0.1 10001414
15:00+10ююз596067 0.3 10011680
18:00+9юз476225 0.1 10031343
21:00+7юз3667100 0.2 1005314
8 мая, сб
сб800:00+6юз1370100 0.0 1006102
03:00+5ююз2580100 0.0 1007265
06:00+5ю258199 0.0 1008325
09:00+7ююз367377 0.1 1009939
12:00+10ююв3754100 0.1 10091541
15:00+13ююв51051100 0.1 10071770
18:00+11ююв51460100 0.6 10061834
21:00+8ю61381100 1.1 10071356
9 мая, вс
вс900:00+8ююв51186100 0.8 10061244
03:00+7ююв3892100 3.4 10051118
06:00+6з3595100 2.7 1006485
09:00+4сз488899 3.4 1009654
12:00+5сз467092 0.0 1011934
15:00+7сз4648100 0.0 10131000
18:00+6ссз3651100 0.0 1014564
21:00+3зюз116720 0.0 101510
10 мая, пн
пн1000:00+2ююз22735 0.0 101634
03:00+2юз24804 0.0 101863
06:00+5ююз27685 0.0 1019204
09:00+9ююз595098 0.0 10191230
12:00+12юз5939100 0.1 10192509
15:00+10зюз5761100 0.4 10211362
18:00+10юз366889 0.2 10211228
21:00+8ююз3779100 0.3 1022400
11 мая, вт
вт1100:00+7ююз378697 0.0 1021440
03:00+7ю3794100 0.9 1020380
06:00+9ююз41294100 2.1 1018607
09:00+11зюз41191100 2.5 1019924
12:00+15зюз497496 0.0 10201032
15:00+19з51256100 0.0 10201688
18:00+19зюз51156100 0.0 10201555
21:00+15зюз396926 0.0 1020275